Showing default

COSMOS 2550, 48865

Orbit data source: Space-Track

COSMOS 2550, 48865 is a payload satellite owned by VVKO VKS (CIS) in LEO that was launched on Fri, 25 Jun 2021 UTC via a SOYUZ-2-1B launch vehicle from the Plesetsk Missile And Space Complex (PKMTR). Payload-class satellites include a variety of spacecraft equipped with specific instruments for various scientific and technological missions. These include communications satellites like Starlink; space stations such as the ISS; scientific satellites like the Hubble; Earth observation satellites from companies like Planet Labs, Umbra, and HawkEye 360; GPS; miniature CubeSats for education and research; and military/defense satellites.

Loading next visibility...
Identifier
48865, 2021-056A
Orbit
LEO
Country
Flag of CISCIS
Related business
Manufacturer
TSSKBP/ARSLO
Mission
Operational Defense Sigint
Bus & Motor
PION-NKS, Unknown motor
Mass
7,231 kg wet, ~6,700 kg dry
Launch date (UTC)
2021-06-25 (5 years ago)
Launch vehicle
SOYUZ-2-1B
Launch site
Plesetsk Missile And Space Complex (PKMTR)
Object type
Payload
Rocket body
Debris
Shape & HBR
Cyl + 2 Pan, 4.3 m
Radar Cross Section
24.037 m², Large (>1 m²)

Expand to show TLE details & history
Last TLE update: 1 day ago

TLE from 1 day ago
0 COSMOS 2550
1 48865U 21056A   26172.52340450  .00002786  00000-0  90492-4 0  9997
2 48865  67.1433  86.7893 0008371 268.8724  91.1471 15.33824588279383
Epoch: 2026-06-21T12:33Z
TLE epoch observation values (Epoch: 2026-06-21T12:33:42.148Z)
Latitude
-0.00008°
Longitude
-11.3588°
Altitude
466.777 km
Speed
7.633 km/s
True Right ascension
05h 47m 09s
True Declination
0° 00' 00"
Sunlit
Object was in daylight at epoch
Visualization orbit readout
Latitude
Unknown
Longitude
Unknown
Altitude
Unknown
Speed
Unknown
Apparent Right ascension
Unknown
Apparent Declination
Unknown
Sunlit
N/A
Visualization observer readout
Local Sidereal Time
23:18:39
Azimuth
Unknown
Elevation
Unknown
Doppler factor
Unknown
Orbital elements
Apogee altitude
468.383 km
Perigee altitude
456.931 km
Semi-major axis
6,840.794 km
Eccentricity
0.00084
Inclination
67.1433°
RAAN
86.7893°
Arg. of periapsis
268.8724°
True anomaly
91.243°
Mean anomaly
91.1471°
Eccentric anomaly
91.19505°
Mean motion
3.83604 °/min
Orbital period
93.85 mins
BSTAR
0.000090492
Loading maneuver chart data...
Computing Atmospheric mass density...
Loading historical data...
Loading historical data...
Loading historical data...
Loading historical data...
Loading historical data...
Loading historical data...
Loading historical data...
Other satellites on launch #56 in the year 2021 (2021-06-25 UTC)

Documentation

Showing up to 5 results
|